DW1024 Weather Reports


time (UTC)temp
C
wind
direction
speed
KPH
gust
KPH
rain 1hr
cm
rain 24hr
cm
rain mn
cm
humidity
%
barometer
mb
20260507110503 15 292 6.4 22.5 0.00 0.84 0.00 67 1015.1
20260507105006 14 232 8.0 20.9 0.00 0.84 0.00 68 1015.0
20260507103505 13 182 6.4 20.9 0.00 0.84 0.00 68 1015.0
20260507102006 13 270 6.4 16.1 0.00 0.84 0.00 72 1015.0
20260507100509 14 306 6.4 20.9 0.00 0.84 0.00 68 1015.1
20260507095004 12 198 4.8 19.3 0.00 0.84 0.00 73 1015.0
20260507093508 12 207 4.8 20.9 0.00 0.84 0.00 76 1014.8
20260507092003 12 270 6.4 20.9 0.00 0.84 0.00 75 1014.8
20260507090507 12 322 6.4 17.7 0.00 0.84 0.00 72 1014.5
20260507085004 13 254 4.8 19.3 0.00 0.84 0.00 72 1014.4
20260507082006 13 229 6.4 17.7 0.00 0.84 0.00 70 1014.2
20260507080510 13 263 6.4 20.9 0.00 0.84 0.00 72 1013.9
20260507075002 12 217 6.4 19.3 0.00 0.84 0.00 73 1013.9
20260507073503 12 246 6.4 17.7 0.00 0.84 0.00 75 1014.0
20260507072445 12 267 6.4 20.9 0.00 0.84 0.00 73 1014.0
20260507071811 12 211 6.4 17.7 0.00 0.84 0.00 75 1013.7
20260507065001 12 234 6.4 20.9 0.00 0.84 0.00 75 1013.6
20260507060501 10 205 4.8 14.5 0.00 0.84 0.00 82 1013.3
20260507055002 10 246 4.8 12.9 0.00 0.84 0.00 85 1013.1
20260507053501 9 254 3.2 14.5 0.00 0.84 0.00 88 1013.0
20260507052006 9 248 3.2 9.7 0.00 0.84 0.00 89 1013.0
20260507050505 8 192 1.6 8.0 0.00 0.84 0.00 89 1012.9
20260507045001 8 222 0.0 4.8 0.00 0.84 0.00 89 1012.7
20260507043503 8 234 1.6 4.8 0.00 0.84 0.00 89 1012.6
20260507042002 8 217 0.0 4.8 0.00 0.84 0.00 88 1012.3
20260507040503 8 217 0.0 1.6 0.00 0.84 0.00 87 1012.3
20260507035001 8 217 0.0 1.6 0.00 0.84 0.00 87 1012.2
20260507033507 8 217 0.0 1.6 0.00 0.84 0.00 87 1012.2
20260507032006 8 217 0.0 1.6 0.00 0.84 0.00 87 1012.3
20260507030503 8 217 0.0 3.2 0.00 0.84 0.00 87 1012.4
20260507025005 8 251 0.0 3.2 0.00 0.84 0.00 86 1012.2
20260507023458 8 246 1.6 6.4 0.00 0.84 0.00 87 1011.9
20260507021958 8 205 3.2 6.4 0.00 0.84 0.00 87 1011.9
20260507020457 8 214 3.2 6.4 0.00 0.84 0.00 87 1011.8
20260507014955 8 218 1.6 9.7 0.00 0.84 0.00 87 1011.5
20260507013455 8 178 3.2 8.0 0.00 0.84 0.00 87 1011.5
20260507004955 9 239 3.2 6.4 0.00 0.84 0.00 87 1011.6
20260507003456 9 279 1.6 8.0 0.00 0.84 0.00 86 1011.5
20260507001958 9 227 1.6 8.0 0.00 0.84 0.00 86 1011.5
20260507000450 10 203 1.6 8.0 0.00 0.84 0.00 86 1011.7
20260506233449 10 255 3.2 6.4 0.00 0.84 0.00 86 1011.6
20260506231947 10 242 3.2 9.7 0.00 0.84 0.00 86 1011.5
20260506224947 10 284 3.2 11.3 0.00 0.84 0.00 86 1011.5
20260506223448 10 234 3.2 8.0 0.00 0.84 0.00 87 1011.5
20260506221948 10 284 1.6 9.7 0.00 0.84 0.00 87 1011.5
20260506220448 10 244 3.2 9.7 0.00 0.84 0.00 86 1011.4
20260506214943 10 252 3.2 8.0 0.00 0.84 0.84 86 1011.1
20260506213444 10 278 3.2 16.1 0.00 0.84 0.84 87 1011.1
20260506211945 10 251 4.8 16.1 0.00 0.89 0.84 88 1011.1
20260506210450 10 238 4.8 11.3 0.00 0.94 0.84 88 1011.0
20260506204946 10 250 3.2 16.1 0.00 1.04 0.84 87 1010.8
20260506203443 10 217 1.6 9.7 0.00 1.14 0.84 87 1010.6
20260506201944 10 194 3.2 9.7 0.00 1.17 0.84 87 1010.6
20260506194948 10 265 3.2 11.3 0.00 1.19 0.84 86 1010.4
20260506191945 10 217 4.8 12.9 0.00 1.27 0.84 86 1010.3
20260506190446 10 181 4.8 14.5 0.00 1.27 0.84 86 1010.1
20260506183447 10 201 4.8 14.5 0.00 1.27 0.84 85 1009.1
20260506181945 10 192 6.4 20.9 0.00 1.27 0.84 86 1008.9
20260506180446 10 254 6.4 24.1 0.00 1.27 0.84 87 1008.8
20260506174947 11 269 6.4 17.7 0.00 1.27 0.84 88 1008.6
20260506171941 11 320 8.0 29.0 0.00 1.27 0.84 90 1008.1
20260506170439 13 261 3.2 11.3 0.00 1.27 0.84 94 1007.6
20260506164940 12 261 3.2 9.7 0.00 1.27 0.84 93 1006.9
20260506161941 12 12 0.0 3.2 0.03 1.27 0.84 93 1006.4
20260506154941 12 222 1.6 6.4 0.61 1.27 0.84 92 1006.4
20260506153441 12 150 3.2 9.7 0.84 1.27 0.84 91 1005.9
20260506151941 12 182 1.6 8.0 0.81 1.24 0.79 88 1006.4
20260506150440 13 254 6.4 24.1 0.61 1.04 0.58 83 1007.2
20260506144942 15 304 12.9 37.0 0.20 0.69 0.18 74 1006.8
20260506141940 17 285 3.2 9.7 0.00 0.48 0.00 64 1004.6
20260506140441 18 267 3.2 11.3 0.00 0.48 0.00 62 1004.9
20260506133440 20 65 6.4 17.7 0.00 0.48 0.00 59 1005.0
20260506131941 19 96 4.8 14.5 0.00 0.48 0.00 64 1005.0
20260506124941 18 119 4.8 14.5 0.00 0.48 0.00 63 1005.2
20260506123437 18 80 6.4 16.1 0.00 0.48 0.00 65 1005.5
20260506121936 18 55 3.2 9.7 0.00 0.48 0.00 65 1005.6
20260506114937 17 28 4.8 12.9 0.00 0.48 0.00 65 1006.0
20260506113436 17 71 3.2 11.3 0.00 0.48 0.00 65 1006.0